EW9081 Weather Reports


time (UTC)temp
F
wind
direction
speed
knots
gust
knots
rain 1hr
in
rain 24hr
in
rain mn
in
humidity
%
barometer
mb
20260904224138 63 5 1.7 7.0 0.00 0.34 0.16 86 1012.8
20260904223637 63 23 0.9 5.2 0.00 0.34 0.16 83 1012.8
20260904223136 63 19 1.7 5.2 0.00 0.34 0.16 85 1012.8
20260904222637 63 9 1.7 4.3 0.00 0.34 0.16 85 1012.8
20260904222136 64 196 1.7 4.3 0.01 0.34 0.16 85 1012.8
20260904221640 63 13 0.9 4.3 0.02 0.34 0.16 87 1012.8
20260904221635 64 175 1.7 4.3 0.01 0.34 0.16 88 1012.7
20260904220635 62 339 0.9 3.5 0.02 0.34 0.16 89 1012.8
20260904220139 62 148 1.7 4.3 0.02 0.34 0.16 87 1012.8
20260904220135 62 17 1.7 3.5 0.02 0.34 0.16 87 1012.7
20260904215139 61 76 0.9 2.6 0.02 0.34 0.16 90 1012.9
20260904215135 62 24 0.9 4.3 0.02 0.34 0.16 90 1012.8
20260904214634 61 166 0.9 2.6 0.02 0.34 0.16 90 1012.9
20260904213633 60 37 0.9 3.5 0.02 0.34 0.16 91 1012.9
20260904213133 60 28 0.9 4.3 0.02 0.34 0.16 92 1012.8
20260904212631 60 10 0.9 4.3 0.02 0.34 0.16 91 1012.8
20260904212130 60 14 0.9 4.3 0.01 0.33 0.15 89 1012.9
20260904211130 60 74 0.9 3.5 0.00 0.32 0.14 89 1012.8
20260904210630 60 35 0.9 4.3 0.01 0.32 0.14 89 1012.8
20260904210130 60 36 0.9 4.3 0.01 0.32 0.14 88 1012.7
20260904205630 60 89 0.9 7.0 0.01 0.32 0.14 88 1012.8
20260904205128 60 175 0.9 7.0 0.02 0.32 0.14 88 1012.7
20260904204627 61 169 1.7 6.1 0.02 0.32 0.14 86 1012.7
20260904204127 61 187 1.7 7.0 0.02 0.32 0.14 85 1012.7
20260904203628 62 153 1.7 7.0 0.03 0.32 0.14 87 1012.7
20260904203124 62 180 1.7 4.3 0.03 0.32 0.14 92 1012.6
20260904202625 61 165 0.9 4.3 0.03 0.32 0.14 90 1012.6
20260904202125 60 121 0.0 3.5 0.03 0.32 0.14 89 1012.6
20260904201624 60 158 0.0 1.7 0.03 0.33 0.14 89 1012.6
20260904201124 60 172 0.0 1.7 0.03 0.33 0.14 89 1012.7
20260904200624 60 172 0.0 4.3 0.02 0.32 0.13 88 1012.8
20260904200124 59 173 0.9 4.3 0.02 0.32 0.13 88 1012.8
20260904195625 60 175 0.9 5.2 0.02 0.32 0.13 86 1012.7
20260904195125 60 107 0.9 5.2 0.01 0.31 0.12 84 1012.7
20260904194625 60 202 0.9 6.1 0.01 0.31 0.12 86 1012.7
20260904194124 61 167 0.9 6.1 0.01 0.31 0.12 84 1012.6
20260904193624 61 163 0.9 6.1 0.00 0.30 0.11 82 1012.7
20260904193124 62 190 0.9 6.1 0.00 0.30 0.11 82 1012.5
20260904192624 61 160 0.9 3.5 0.00 0.30 0.11 85 1012.6
20260904192124 61 130 0.9 3.5 0.00 0.31 0.11 82 1012.5
20260904191623 61 84 0.9 3.5 0.00 0.31 0.11 84 1012.6
20260904191128 60 171 0.9 3.5 0.00 0.32 0.11 89 1012.6
20260904191122 61 170 0.9 3.5 0.00 0.32 0.11 86 1012.6
20260904190122 59 334 0.9 2.6 0.00 0.32 0.11 87 1012.6
20260904185622 59 0 0.0 1.7 0.00 0.33 0.11 88 1012.7
20260904185128 59 5 0.0 2.6 0.00 0.34 0.11 89 1012.6
20260904185124 59 5 0.0 2.6 0.00 0.34 0.11 89 1012.6
20260904184122 59 39 0.0 1.7 0.00 0.34 0.11 90 1012.6
20260904183623 59 39 0.0 1.7 0.00 0.35 0.11 90 1012.6
20260904183127 59 22 0.9 4.3 0.00 0.37 0.11 89 1012.6
20260904183123 59 38 0.0 1.7 0.00 0.36 0.11 89 1012.6
20260904182736 59 11 0.9 4.3 0.00 0.38 0.11 92 1012.5
20260904181619 58 28 0.9 4.3 0.00 0.39 0.11 90 1012.4
20260904181120 58 19 0.9 4.3 0.00 0.39 0.11 91 1012.4
20260904180621 58 18 0.9 2.6 0.00 0.39 0.11 91 1012.4
20260904180124 58 162 0.9 2.6 0.00 0.39 0.11 92 1012.4
20260904180120 58 24 0.9 2.6 0.00 0.39 0.11 91 1012.5
20260904175120 58 35 0.0 2.6 0.00 0.39 0.11 91 1012.3
20260904174625 57 348 0.9 2.6 0.00 0.39 0.11 93 1012.3
20260904174120 57 79 0.9 2.6 0.00 0.39 0.11 93 1012.3
20260904173619 57 69 0.0 2.6 0.00 0.39 0.11 92 1012.2
20260904173118 57 125 0.9 4.3 0.00 0.39 0.11 92 1012.3
20260904172617 57 35 0.9 4.3 0.00 0.39 0.11 91 1012.2
20260904172119 57 163 0.9 3.5 0.00 0.39 0.11 92 1012.2
20260904171618 57 283 0.0 2.6 0.00 0.40 0.11 93 1012.2
20260904171118 57 69 0.0 2.6 0.00 0.40 0.11 93 1012.1
20260904170619 57 19 0.9 3.5 0.00 0.40 0.11 93 1012.0
20260904170122 56 44 0.9 3.5 0.00 0.40 0.11 94 1012.0
20260904170117 57 31 0.9 3.5 0.00 0.40 0.11 94 1012.0
20260904165118 56 28 0.9 3.5 0.00 0.40 0.11 94 1011.9
20260904164617 56 355 0.9 3.5 0.00 0.40 0.11 94 1011.8
20260904164116 56 343 0.9 3.5 0.00 0.40 0.11 94 1011.8
20260904163617 56 32 0.9 2.6 0.00 0.40 0.11 95 1011.8
20260904163116 56 28 0.9 2.6 0.00 0.40 0.11 94 1011.8
20260904162617 56 49 0.0 2.6 0.00 0.40 0.11 94 1011.8
20260904162116 56 9 0.0 2.6 0.00 0.40 0.11 95 1011.8
20260904161627 55 223 0.0 2.6 0.00 0.41 0.11 95 1011.9
20260904161621 56 10 0.9 2.6 0.00 0.40 0.11 95 1011.9
20260904161115 56 22 0.9 2.6 0.00 0.40 0.11 95 1011.8
20260904160615 56 9 0.9 2.6 0.00 0.41 0.11 95 1011.8
20260904155615 55 22 0.0 2.6 0.00 0.41 0.11 95 1011.9
20260904155112 55 69 0.9 2.6 0.00 0.41 0.11 95 1011.9
20260904154612 55 45 0.9 3.5 0.00 0.42 0.11 95 1011.8
20260904154113 55 123 0.9 3.5 0.00 0.44 0.11 95 1011.8
20260904153613 55 344 0.9 3.5 0.00 0.44 0.11 95 1011.7
20260904153111 55 5 0.9 3.5 0.00 0.44 0.11 95 1011.7
20260904152609 55 22 0.9 3.5 0.00 0.45 0.11 95 1011.6
20260904152110 54 326 0.9 3.5 0.00 0.46 0.11 95 1011.6
20260904151611 54 331 0.9 3.5 0.00 0.46 0.11 95 1011.5
20260904151109 54 22 0.9 3.5 0.00 0.46 0.11 95 1011.5
20260904150608 54 67 0.0 2.6 0.00 0.47 0.11 95 1011.5
20260904150108 54 346 0.0 2.6 0.00 0.47 0.11 95 1011.4
20260904145609 54 333 0.9 3.5 0.00 0.48 0.11 95 1011.4
20260904145107 54 42 0.9 3.5 0.00 0.51 0.11 95 1011.3
20260904144609 54 26 0.9 2.6 0.00 0.52 0.11 95 1011.3
20260904144108 53 172 0.0 2.6 0.00 0.54 0.11 95 1011.2
20260904143609 53 69 0.0 2.6 0.00 0.54 0.11 95 1011.2
20260904143108 53 61 0.9 2.6 0.00 0.54 0.11 95 1011.2
20260904142608 53 16 0.9 2.6 0.00 0.54 0.11 95 1011.1
20260904142109 53 28 0.0 2.6 0.00 0.55 0.11 95 1011.0
20260904141608 53 103 0.9 2.6 0.00 0.57 0.11 95 1011.0
20260904141108 53 350 0.9 2.6 0.00 0.58 0.11 95 1010.8
20260904140607 53 13 0.0 2.6 0.00 0.59 0.11 95 1010.7
20260904140109 53 355 0.0 1.7 0.00 0.59 0.11 95 1010.7
20260904135609 53 13 0.0 1.7 0.00 0.59 0.11 95 1010.7
20260904135108 53 12 0.0 2.6 0.00 0.60 0.11 95 1010.7
20260904134607 53 5 0.0 2.6 0.01 0.62 0.11 95 1010.7
20260904134108 53 5 0.0 1.7 0.01 0.62 0.11 95 1010.7
20260904133608 53 25 0.9 2.6 0.01 0.63 0.11 95 1010.5
20260904133109 53 20 0.9 2.6 0.01 0.63 0.11 95 1010.4
20260904132613 53 26 0.0 3.5 0.01 0.63 0.11 95 1010.4
20260904132609 53 5 0.9 2.6 0.01 0.63 0.11 95 1010.4
20260904131607 53 34 0.9 3.5 0.01 0.63 0.11 95 1010.3
20260904131109 53 0 0.0 2.6 0.01 0.63 0.11 95 1010.3
20260904130607 53 0 0.9 3.5 0.01 0.63 0.11 95 1010.3
20260904130105 53 24 0.9 3.5 0.01 0.63 0.11 95 1010.3
20260904125611 53 173 0.0 1.7 0.01 0.63 0.10 95 1010.1
20260904125605 53 36 0.9 3.5 0.02 0.63 0.11 95 1010.2
20260904125105 53 16 0.9 3.5 0.02 0.63 0.11 95 1010.2
20260904124604 53 178 0.0 1.7 0.01 0.63 0.10 95 1010.2
20260904123603 53 18 0.0 1.7 0.01 0.63 0.10 95 1010.1
20260904123101 53 34 0.0 1.7 0.01 0.63 0.10 95 1010.1
20260904122601 53 28 0.0 1.7 0.01 0.63 0.10 95 1010.1
20260904122103 53 28 0.0 1.7 0.01 0.64 0.10 95 1010.1
20260904121601 53 23 0.0 1.7 0.01 0.64 0.10 95 1010.1
20260904121107 53 22 0.9 2.6 0.01 0.65 0.10 95 1010.0
20260904121101 53 19 0.0 2.6 0.01 0.65 0.10 95 1010.0
20260904115602 53 21 0.0 1.7 0.00 0.69 0.09 95 1010.0
20260904115109 53 13 0.9 1.7 0.00 0.75 0.09 95 1009.8
20260904115101 54 21 0.0 1.7 0.00 0.72 0.09 95 1009.9
20260904114601 53 23 0.0 1.7 0.00 0.74 0.09 95 1010.0
20260904114102 53 17 0.0 1.7 0.00 0.74 0.09 95 1009.9
20260904113101 53 24 0.0 1.7 0.00 0.75 0.09 95 1009.8
20260904112601 53 20 0.0 1.7 0.00 0.75 0.09 95 1009.7
20260904112103 53 349 0.9 1.7 0.00 0.75 0.09 95 1009.6
20260904111603 53 15 0.0 2.6 0.00 0.76 0.09 95 1009.5
20260904111559 53 14 0.0 1.7 0.00 0.76 0.09 95 1009.6
20260904111057 53 17 0.0 2.6 0.00 0.76 0.09 95 1009.5
20260904110059 53 0 0.0 1.7 0.00 0.76 0.09 95 1009.5
20260904105559 54 355 0.0 1.7 0.01 0.76 0.09 95 1009.5
20260904105057 54 99 0.0 3.5 0.01 0.76 0.09 95 1009.5
20260904104600 54 22 0.0 3.5 0.01 0.76 0.09 95 1009.5
20260904104057 54 12 0.0 1.7 0.01 0.76 0.09 95 1009.5
20260904103602 54 106 0.0 1.7 0.01 0.76 0.09 95 1009.4
20260904103557 54 5 0.0 1.7 0.01 0.76 0.09 95 1009.5
20260904103210 54 107 0.0 1.7 0.01 0.76 0.09 95 1009.4
20260904102059 54 109 0.0 1.7 0.01 0.76 0.09 95 1009.4
20260904101603 54 57 0.0 1.7 0.01 0.76 0.09 95 1009.4
20260904101559 54 115 0.0 1.7 0.01 0.76 0.09 95 1009.4
20260904100559 54 43 0.0 1.7 0.02 0.76 0.09 95 1009.3
20260904100555 54 53 0.0 1.7 0.01 0.76 0.09 95 1009.4
20260904095556 54 43 0.0 2.6 0.02 0.75 0.08 95 1009.3
20260904095056 54 44 0.0 2.6 0.02 0.75 0.08 94 1009.3
20260904094555 54 5 0.0 1.7 0.03 0.75 0.08 94 1009.4
20260904094054 54 5 0.0 0.0 0.04 0.75 0.08 95 1009.4
20260904093556 54 5 0.0 0.0 0.05 0.75 0.08 94 1009.4
20260904093054 54 9 0.0 0.0 0.06 0.75 0.08 94 1009.3
20260904092554 54 5 0.0 1.7 0.07 0.75 0.08 94 1009.3
20260904092052 54 5 0.0 1.7 0.08 0.75 0.08 94 1009.3
20260904091553 54 5 0.0 1.7 0.08 0.75 0.08 94 1009.3
20260904091054 54 5 0.0 1.7 0.08 0.75 0.08 94 1009.3
20260904090558 54 5 0.0 1.7 0.07 0.74 0.07 94 1009.2
20260904090553 54 0 0.0 1.7 0.08 0.75 0.08 95 1009.2
20260904085559 54 9 0.0 1.7 0.05 0.72 0.05 94 1009.2
20260904085554 54 9 0.0 1.7 0.06 0.73 0.06 94 1009.2
20260904085055 54 5 0.0 1.7 0.06 0.73 0.06 94 1009.2
20260904084707 54 5 0.0 1.7 0.03 0.70 0.03 94 1009.3
20260904084054 54 5 0.0 1.7 0.04 0.71 0.04 94 1009.3
20260904083053 54 5 0.0 1.7 0.02 0.70 0.02 94 1009.4
20260904082553 54 5 0.0 1.7 0.01 0.69 0.01 94 1009.3
20260904082051 54 355 0.0 1.7 0.00 0.68 0.01 94 1009.4
20260904081556 53 32 0.0 2.6 0.00 0.68 0.00 94 1009.3
20260904081551 53 347 0.0 2.6 0.00 0.68 0.00 94 1009.3
20260904080552 53 180 0.0 1.7 0.00 0.68 0.00 94 1009.4
20260904080050 53 180 0.0 1.7 0.00 0.68 0.00 94 1009.4
20260904075555 54 180 0.0 1.7 0.00 0.68 0.00 94 1009.4
20260904075551 54 180 0.0 1.7 0.00 0.68 0.00 94 1009.4
20260904074549 54 180 0.0 1.7 0.00 0.68 0.00 94 1009.3
20260904074048 54 180 0.0 1.7 0.00 0.68 0.00 94 1009.3
20260904073549 54 180 0.0 1.7 0.00 0.68 0.00 94 1009.3
20260904073049 54 60 0.0 1.7 0.00 0.68 0.00 94 1009.2
20260904072549 54 60 0.0 1.7 0.00 0.68 0.00 94 1009.2
20260904072050 54 60 0.0 1.7 0.00 0.68 0.00 94 1009.2
20260904071549 54 60 0.0 1.7 0.00 0.68 0.00 94 1009.3
20260904071048 54 9 0.0 1.7 0.00 0.68 0.00 94 1009.2
20260904070552 54 5 0.0 1.7 0.00 0.68 0.00 94 1009.1
20260904070548 54 41 0.0 1.7 0.00 0.68 0.00 94 1009.1
20260904065547 54 41 0.0 2.6 0.00 0.68 0.68 94 1009.2
20260904065048 54 37 0.0 2.6 0.00 0.68 0.68 94 1009.1
20260904064547 54 37 0.0 2.6 0.00 0.68 0.68 94 1009.1
20260904064047 54 37 0.0 2.6 0.00 0.68 0.68 94 1009.1
20260904063548 54 136 0.0 1.7 0.00 0.68 0.68 94 1009.2
20260904063047 54 136 0.0 1.7 0.00 0.68 0.68 94 1009.2
20260904062547 54 136 0.0 1.7 0.00 0.68 0.68 94 1009.2
20260904062051 54 136 0.0 1.7 0.00 0.68 0.68 94 1009.2
20260904062045 54 136 0.0 1.7 0.00 0.68 0.68 94 1009.2
20260904061045 54 136 0.0 1.7 0.00 0.68 0.68 94 1009.2
20260904060545 54 137 0.0 1.7 0.00 0.68 0.68 94 1009.2
20260904060045 54 137 0.0 1.7 0.00 0.68 0.68 94 1009.3
20260904055545 54 138 0.0 0.0 0.00 0.68 0.68 94 1009.3
20260904055045 54 138 0.0 0.0 0.00 0.68 0.68 94 1009.3
20260904054544 54 138 0.0 0.0 0.00 0.68 0.68 94 1009.3
20260904054044 54 138 0.0 0.0 0.01 0.68 0.68 93 1009.3
20260904053549 54 138 0.0 1.7 0.02 0.68 0.68 93 1009.3
20260904053543 54 138 0.0 1.7 0.01 0.68 0.68 93 1009.3
20260904052543 54 138 0.0 1.7 0.02 0.68 0.68 94 1009.3
20260904052043 54 138 0.0 1.7 0.03 0.68 0.68 94 1009.3
20260904051543 54 91 0.0 1.7 0.03 0.68 0.68 94 1009.3
20260904051043 54 91 0.0 1.7 0.04 0.68 0.68 94 1009.4
20260904050544 54 90 0.0 1.7 0.04 0.68 0.68 94 1009.4
20260904050040 54 90 0.0 1.7 0.04 0.68 0.68 94 1009.4
20260904045540 54 90 0.0 1.7 0.04 0.68 0.68 94 1009.3
20260904045039 54 90 0.0 1.7 0.05 0.68 0.68 94 1009.3
20260904044539 54 92 0.0 1.7 0.05 0.68 0.68 93 1009.3
20260904044044 55 92 0.0 1.7 0.04 0.67 0.67 93 1009.3
20260904044039 55 92 0.0 1.7 0.04 0.67 0.67 93 1009.3
20260904043040 55 92 0.0 3.5 0.03 0.66 0.66 93 1009.3
20260904042539 55 80 0.0 3.5 0.04 0.66 0.66 93 1009.3
20260904042039 55 166 0.0 4.3 0.03 0.65 0.65 93 1009.2
20260904041540 55 165 0.0 4.3 0.04 0.65 0.65 93 1009.2
20260904041044 55 165 0.0 4.3 0.03 0.64 0.64 93 1009.2
20260904041039 55 165 0.0 4.3 0.03 0.64 0.64 93 1009.2
20260904040039 55 140 0.0 4.3 0.03 0.64 0.64 93 1009.2
20260904035537 55 183 0.9 2.6 0.03 0.64 0.64 93 1009.2
20260904035038 55 176 0.9 2.6 0.02 0.63 0.63 93 1009.1
20260904034537 55 172 0.9 3.5 0.02 0.63 0.63 93 1009.1
20260904034037 55 167 0.9 5.2 0.02 0.63 0.63 93 1009.0
20260904033537 55 173 0.0 5.2 0.02 0.63 0.63 93 1009.0
20260904033039 55 173 0.0 2.6 0.02 0.63 0.63 93 1008.9
20260904032537 55 165 0.0 2.6 0.01 0.62 0.62 93 1008.9
20260904032037 55 175 0.0 2.6 0.01 0.62 0.62 92 1008.8
20260904031537 55 174 0.9 2.6 0.00 0.61 0.61 92 1008.8
20260904031040 55 171 0.0 3.5 0.00 0.61 0.61 92 1008.8
20260904031035 55 178 0.9 3.5 0.00 0.61 0.61 92 1008.8
20260904030035 55 175 0.0 2.6 0.00 0.61 0.61 92 1008.8
20260904025535 55 178 0.0 1.7 0.00 0.61 0.61 92 1008.8
20260904025034 55 159 0.0 2.6 0.00 0.61 0.61 92 1008.8
20260904024532 55 158 0.0 3.5 0.01 0.61 0.61 92 1008.8
20260904024033 55 183 0.0 3.5 0.01 0.61 0.61 92 1008.8
20260904023533 55 158 0.0 1.7 0.01 0.61 0.61 92 1008.8
20260904023036 56 161 0.0 3.5 0.02 0.61 0.61 92 1008.8
20260904023032 55 138 0.0 3.5 0.01 0.61 0.61 92 1008.8
20260904022646 56 161 0.9 3.5 0.04 0.61 0.61 92 1008.8
20260904021530 56 185 0.9 3.5 0.05 0.61 0.61 92 1008.8
20260904021030 56 166 0.0 3.5 0.06 0.61 0.61 92 1008.7
20260904020528 56 144 0.9 3.5 0.06 0.61 0.61 91 1008.7
20260904020027 56 175 0.9 3.5 0.06 0.61 0.61 91 1008.7
20260904015525 56 163 0.9 4.3 0.06 0.61 0.61 91 1008.7
20260904015030 56 179 0.9 4.3 0.05 0.60 0.61 92 1008.8
20260904015025 56 149 0.9 4.3 0.06 0.61 0.61 92 1008.7
20260904014025 56 159 0.9 3.5 0.05 0.60 0.60 91 1008.8
20260904013524 56 180 0.9 3.5 0.05 0.60 0.60 91 1008.6
20260904013022 56 166 0.9 4.3 0.05 0.60 0.60 90 1008.7
20260904012524 57 121 1.7 4.3 0.04 0.59 0.59 90 1008.6
20260904012022 57 182 0.9 4.3 0.02 0.57 0.57 89 1008.6
20260904011522 57 132 1.7 7.0 0.01 0.56 0.56 89 1008.6
20260904011022 58 180 1.7 7.0 0.01 0.55 0.55 89 1008.6
20260904010528 58 157 0.9 3.5 0.03 0.55 0.55 90 1008.5
20260904010522 58 182 0.9 7.0 0.01 0.55 0.55 89 1008.5
20260904010022 58 169 0.9 7.0 0.02 0.55 0.55 89 1008.5
20260904005029 58 129 0.0 1.7 0.05 0.55 0.55 90 1008.6
20260904005022 58 178 0.9 3.5 0.03 0.55 0.55 90 1008.6
20260904004523 58 169 0.0 2.6 0.04 0.55 0.55 90 1008.6
20260904004023 58 189 0.0 2.6 0.04 0.55 0.55 90 1008.6
20260904003028 58 128 0.0 1.7 0.05 0.55 0.55 91 1008.7
20260904003023 58 128 0.0 1.7 0.05 0.55 0.55 90 1008.6
20260904002022 57 128 0.0 1.7 0.05 0.55 0.55 90 1008.8
20260904001523 57 127 0.0 1.7 0.05 0.55 0.55 89 1008.7
20260904001024 57 127 0.0 1.7 0.04 0.54 0.55 89 1008.8
20260904000523 57 127 0.0 1.7 0.04 0.54 0.54 89 1008.8
20260904000023 57 127 0.0 1.7 0.03 0.53 0.53 88 1008.8
20260903235522 58 127 0.0 1.7 0.02 0.52 0.52 89 1008.9
20260903235022 58 117 0.0 1.7 0.02 0.52 0.52 88 1008.9
20260903234523 58 172 0.0 2.6 0.01 0.51 0.51 88 1008.9
20260903234022 58 96 0.9 2.6 0.01 0.51 0.51 87 1008.9
20260903233523 58 170 0.0 1.7 0.00 0.50 0.50 87 1008.9
20260903233022 58 169 0.9 2.6 0.00 0.50 0.50 87 1008.9
20260903232524 58 168 0.9 3.5 0.00 0.50 0.50 86 1008.9
20260903232023 59 142 0.9 3.5 0.00 0.50 0.50 83 1008.8
20260903231522 59 146 0.9 4.3 0.00 0.50 0.50 83 1008.9
20260903231023 60 174 0.9 4.3 0.00 0.50 0.50 84 1008.8
20260903230522 60 167 0.9 4.3 0.00 0.50 0.50 85 1008.8
20260903230028 60 188 0.9 5.2 0.00 0.50 0.50 86 1008.7
20260903230022 60 179 0.9 4.3 0.00 0.50 0.50 85 1008.7
20260903225023 60 166 1.7 5.2 0.00 0.51 0.50 86 1008.8
20260903224522 60 182 1.7 5.2 0.00 0.51 0.50 89 1008.8